Weather History for KEST - October, 2011

Change the Weather History Date:

Wednesday, October 19, 2011

  Actual Average Record
Temperature  
Mean Temperature 38 °F 46 °F  
Max Temperature 48 °F 58 °F 87 °F (2003)
Min Temperature 27 °F 35 °F 13 °F (1972)
Degree Days  
Heating Degree Days 27 18  
Month to date heating degree days 173 283  
Since 1 July heating degree days 393 491  
Cooling Degree Days 0 0  
Month to date cooling degree days 21 4  
Year to date cooling degree days 767 591  
Moisture  
Dew Point 28 °F    
Average Humidity 69    
Maximum Humidity 85    
Minimum Humidity 53    
Precipitation  
Precipitation 0.00 in 0.05 in 1.05 in (1984)
Month to date precipitation 0.25 1.60  
Year to date precipitation 19.01  
Sea Level Pressure  
Sea Level Pressure 30.10 in    
Wind  
Wind Speed 14 mph (NNW)    
Max Wind Speed 23 mph    
Max Gust Speed 28 mph    
Visibility 10 miles    
Events      
T = Trace of Precipitation, MM = Missing Value Source: NWS Daily Summary

Daily Weather History Graph

Daily Weather History Graph

Search for Another Location

Airport or City:

Trip Planner

Search our weather history database for the weather conditions in past years. The results will help you decide how hot, cold, wet, or windy it might be!

Date:

Astronomy

Oct. 19, 2011 Rise Set
Actual Time 7:37 AM CDT 6:29 PM CDT
Civil Twilight 7:08 AM CDT 6:58 PM CDT
Nautical Twilight 6:35 AM CDT 7:31 PM CDT
Astronomical Twilight 6:02 AM CDT 8:04 PM CDT
Moon No Moon Rise 2:13 PM CDT (10/19)
Length of Visible Light 11h 50m
Length of Day
10h 52m
Waning Gibbous, 54% of the Moon is Illuminated
Oct 19
Waning Gibbous
Oct 19
Last Quarter
Oct 26
New
Nov 2
First Quarter
Nov 10
Full

Hourly Weather History & Observations

Time (CDT) Temp. Windchill Dew Point Humidity Pressure Visibility Wind Dir Wind Speed Gust Speed Precip Events Conditions
12:52 AM 30.9 °F 22.8 °F 21.9 °F 69% 30.09 in 10.0 mi NNW 9.2 mph - N/A   Clear
1:52 AM 30.0 °F 21.7 °F 21.9 °F 72% 30.08 in 10.0 mi NNW 9.2 mph - N/A   Clear
2:52 AM 28.9 °F 20.4 °F 23.0 °F 78% 30.08 in 10.0 mi NNW 9.2 mph - N/A   Clear
3:52 AM 28.0 °F 18.1 °F 23.0 °F 81% 30.08 in 10.0 mi NNW 11.5 mph - N/A   Clear
4:52 AM 28.0 °F 17.5 °F 21.9 °F 78% 30.08 in 10.0 mi NNW 12.7 mph - N/A   Clear
5:52 AM 30.9 °F 21.2 °F 24.1 °F 76% 30.09 in 10.0 mi NNW 12.7 mph - N/A   Overcast
7:52 AM 33.1 °F 23.9 °F 24.1 °F 70% 30.11 in 10.0 mi NNW 12.7 mph - N/A   Overcast
9:52 AM 37.0 °F 27.7 °F 27.0 °F 67% 30.14 in 10.0 mi North 16.1 mph - N/A   Mostly Cloudy
10:52 AM 39.9 °F 30.8 °F 30.0 °F 68% 30.13 in 10.0 mi North 18.4 mph - N/A   Overcast
11:52 AM 42.1 °F 33.9 °F 30.9 °F 65% 30.14 in 10.0 mi North 17.3 mph 21.9 mph N/A   Overcast
12:52 PM 45.0 °F 38.5 °F 30.9 °F 58% 30.12 in 10.0 mi North 13.8 mph 23.0 mph N/A   Mostly Cloudy
1:52 PM 46.0 °F 38.5 °F 30.9 °F 56% 30.10 in 10.0 mi North 19.6 mph - N/A   Mostly Cloudy
3:52 PM 45.0 °F 37.1 °F 32.0 °F 60% 30.09 in 10.0 mi North 19.6 mph 26.5 mph N/A   Overcast
4:52 PM 45.0 °F 37.9 °F 32.0 °F 60% 30.09 in 10.0 mi North 16.1 mph 23.0 mph N/A   Overcast
5:52 PM 43.0 °F 35.7 °F 30.9 °F 62% 30.09 in 10.0 mi North 15.0 mph 23.0 mph N/A   Overcast
6:52 PM 43.0 °F 35.7 °F 30.9 °F 62% 30.10 in 10.0 mi North 15.0 mph 21.9 mph N/A   Overcast
7:52 PM 42.1 °F 34.9 °F 30.0 °F 62% 30.10 in 10.0 mi North 13.8 mph - N/A   Overcast
8:52 PM 37.9 °F 30.5 °F 28.9 °F 70% 30.11 in 10.0 mi North 11.5 mph - N/A   Scattered Clouds
9:52 PM 35.1 °F 27.9 °F 28.0 °F 76% 30.10 in 10.0 mi NNW 9.2 mph - N/A   Clear
10:52 PM 34.0 °F 26.6 °F 28.9 °F 82% 30.09 in 10.0 mi NW 9.2 mph - N/A   Overcast
11:52 PM 32.0 °F 26.4 °F 28.0 °F 85% 30.07 in 10.0 mi NW 5.8 mph - N/A   Clear